Probability
0 0 0 0 0 0 0 0 0 0 0 0 0 0 0 0 0 3 3 3 3 3 6 10 16 23 26 29 42 55 68 65 55 45 23 16 19 6 3 10 6 0 0 0
0 0 0 0 0 0 0 0 0 0 0 0 0 0 0 0 0 0 0 0 0 0 0 3 6 13 23 26 32 39 61 61 52 42 32 23 16 10 6 6 6 3 0 0
0 0 0 0 0 0 0 0 0 0 0 0 0 0 0 0 0 0 0 0 0 0 0 0 3 10 13 23 32 39 42 52 55 48 29 16 16 13 6 6 3 0 0 0
0 0 0 0 0 0 0 0 0 0 0 0 0 0 0 0 0 0 0 0 0 0 0 0 0 3 10 19 26 29 35 42 52 52 39 19 16 3 3 3 3 0 0 0
0 0 0 0 0 0 0 0 0 0 0 0 0 0 0 0 0 0 0 0 0 0 0 0 0 3 10 13 23 29 32 35 35 42 26 29 16 3 3 3 3 3 0 0
0 0 0 0 0 0 0 0 0 0 0 0 0 0 0 0 0 0 0 0 0 0 0 0 0 3 3 10 10 16 19 23 26 29 26 23 19 10 6 6 6 3 0 0
0 0 0 0 0 0 0 0 0 0 0 0 0 0 0 0 0 0 0 0 0 0 0 0 0 0 0 0 6 6 13 13 16 16 19 26 19 13 13 10 6 6 3 0
0 0 0 0 0 0 0 0 0 0 0 0 0 0 0 0 0 0 0 0 0 0 0 0 0 0 0 0 0 0 3 3 6 10 16 16 16 10 10 10 6 6 3 3
0 0 0 0 0 0 0 0 0 0 0 0 0 0 0 0 0 0 0 0 0 0 0 0 0 0 0 0 0 0 0 0 3 3 3 3 10 6 10 10 6 6 3 0
0 0 0 0 0 0 0 0 0 0 0 0 0 0 0 0 0 0 0 0 0 0 0 0 0 0 0 0 0 0 0 0 0 3 3 3 3 3 3 3 6 0 0 0
0 0 0 0 0 0 0 0 0 0 0 0 0 0 0 0 0 0 0 0 0 0 0 0 0 0 0 0 0 0 0 0 0 0 0 0 0 0 3 3 3 0 0 0
0 0 0 0 0 0 0 0 0 0 0 0 0 0 0 0 0 0 0 0 0 0 0 0 0 0 0 0 0 0 0 0 0 0 0 0 0 0 0 0 0 0 0 0
0 0 0 0 0 0 0 0 0 0 0 0 0 0 0 0 0 0 0 0 0 0 0 0 0 0 0 0 0 0 0 0 0 0 0 0 0 0 0 0 0 0 0 0
0 0 0 0 0 0 0 0 0 0 0 0 0 0 0 0 0 0 0 0 0 0 0 0 0 0 0 0 0 0 0 0 0 0 0 0 0 0 0 0 0 0 0 0
0 0 0 0 0 0 0 0 0 0 0 0 0 0 0 0 0 0 0 0 0 0 0 0 0 0 0 0 0 0 0 0 0 0 0 0 0 0 0 0 0 0 0 0
0 0 0 0 0 0 0 0 0 0 0 0 0 0 0 0 0 0 0 0 0 0 0 0 0 0 0 0 0 0 0 0 0 0 0 0 0 0 0 0 0 0 0 0
0 0 0 0 0 0 0 0 0 0 0 0 0 0 0 0 0 0 0 0 0 0 0 0 0 0 0 0 0 0 0 0 0 0 0 0 0 0 0 0 0 0 0 0
0 0 0 0 0 0 0 0 0 0 0 0 0 0 0 0 0 0 0 0 0 0 0 0 0 0 0 0 0 0 0 0 0 0 0 0 0 0 0 0 0 0 0 0
0 0 0 0 0 0 0 0 0 0 0 0 0 0 0 0 0 0 0 0 0 0 0 0 0 0 0 0 0 0 0 0 0 0 0 0 0 0 0 0 0 0 0 0
0 0 0 0 0 0 0 0 0 0 0 0 0 0 0 0 0 0 0 0 0 0 0 0 0 0 0 0 0 0 0 0 0 0 0 0 0 0 0 0 0 0 0 0
0 0 0 0 0 0 0 0 0 0 0 0 0 0 0 0 0 0 0 0 0 0 0 0 0 0 0 0 0 0 0 0 0 0 0 0 0 0 0 0 0 0 0 0
0 0 0 0 0 0 0 0 0 0 0 0 0 0 0 0 0 0 0 0 0 0 0 0 0 0 0 0 0 0 0 0 0 0 0 0 0 0 0 0 0 0 0 0
0 0 0 0 0 0 0 0 0 0 0 0 0 0 0 0 0 0 0 0 0 0 0 0 0 0 0 0 0 0 0 0 0 0 0 0 0 0 0 0 0 0 0 0
0 0 0 0 0 0 0 0 0 0 0 0 0 0 0 0 0 0 0 0 0 0 0 0 0 0 0 0 0 0 0 0 0 0 0 0 0 0 0 0 0 0 0 0
0 0 0 0 0 0 0 0 0 0 0 0 0 0 0 0 0 0 0 0 0 0 0 0 0 0 0 0 0 0 0 0 0 0 0 0 0 0 0 0 0 0 0 0
0 0 0 0 0 0 0 0 0 0 0 0 0 0 0 0 0 0 0 0 0 0 0 0 0 0 0 0 0 0 0 0 0 0 0 0 0 0 0 0 0 0 0 0
Height
5613 5618 5622 5627 5634 5640 5646 5652 5658 5666 5673 5679 5686 5694 5700 5706 5713 5722 5729 5736 5744 5752 5759 5765 5772 5778 5785 5790 5796 5801 5805 5810 5814 5817 5821 5824 5827 5830 5832 5834 5836 5837 5839 5840
5614 5617 5622 5626 5631 5636 5642 5648 5655 5661 5667 5674 5680 5687 5693 5699 5707 5716 5723 5730 5737 5745 5751 5757 5765 5771 5777 5783 5788 5793 5798 5803 5807 5811 5814 5817 5820 5822 5825 5826 5828 5830 5832 5833
5615 5619 5621 5625 5629 5634 5640 5646 5652 5658 5663 5668 5674 5680 5687 5694 5701 5709 5716 5723 5730 5737 5744 5750 5757 5763 5769 5775 5781 5786 5790 5795 5799 5803 5806 5809 5812 5815 5817 5819 5821 5822 5824 5825
5616 5618 5620 5624 5628 5633 5638 5643 5648 5654 5658 5663 5669 5674 5682 5688 5695 5702 5710 5717 5724 5730 5736 5742 5748 5755 5761 5767 5773 5777 5782 5786 5791 5794 5798 5801 5804 5807 5809 5811 5813 5814 5815 5817
5617 5618 5620 5623 5627 5631 5636 5641 5646 5650 5654 5658 5663 5668 5677 5682 5688 5696 5704 5710 5717 5723 5729 5734 5741 5747 5753 5759 5764 5769 5773 5778 5782 5786 5789 5793 5796 5798 5800 5802 5804 5805 5807 5808
5618 5619 5620 5623 5626 5630 5634 5639 5642 5646 5649 5654 5660 5664 5671 5676 5684 5691 5697 5703 5709 5715 5720 5726 5732 5738 5744 5749 5754 5759 5764 5768 5772 5776 5780 5783 5786 5788 5791 5793 5795 5796 5798 5799
5619 5619 5620 5623 5626 5629 5633 5637 5640 5643 5645 5651 5656 5658 5666 5672 5678 5684 5690 5696 5701 5707 5712 5718 5723 5729 5734 5740 5745 5749 5754 5758 5762 5766 5770 5773 5776 5778 5781 5783 5785 5786 5788 5789
5619 5621 5621 5623 5625 5627 5630 5634 5638 5641 5644 5647 5650 5654 5662 5666 5671 5677 5683 5689 5694 5698 5704 5710 5715 5720 5725 5730 5735 5739 5744 5748 5752 5756 5760 5763 5766 5768 5771 5773 5774 5776 5777 5778
5619 5620 5621 5622 5624 5626 5628 5631 5635 5638 5640 5643 5646 5651 5655 5659 5665 5670 5676 5681 5686 5691 5696 5701 5706 5711 5716 5721 5725 5729 5734 5738 5742 5746 5749 5752 5755 5758 5760 5762 5763 5765 5766 5767
5619 5619 5620 5620 5622 5624 5627 5629 5632 5634 5637 5639 5643 5646 5650 5653 5658 5663 5668 5674 5679 5684 5689 5693 5698 5702 5707 5711 5715 5719 5723 5728 5732 5735 5739 5742 5744 5747 5749 5750 5752 5753 5755 5756
5618 5618 5619 5619 5621 5623 5625 5627 5629 5631 5633 5636 5639 5644 5644 5648 5652 5656 5661 5667 5672 5677 5681 5686 5690 5694 5698 5702 5706 5710 5714 5718 5721 5725 5728 5731 5733 5735 5737 5739 5740 5742 5743 5744
5616 5616 5616 5617 5619 5620 5621 5623 5626 5628 5630 5632 5634 5640 5640 5643 5646 5650 5655 5660 5665 5669 5674 5678 5682 5686 5690 5693 5697 5701 5704 5708 5711 5714 5717 5720 5722 5724 5726 5727 5729 5730 5731 5732
5614 5613 5613 5614 5617 5617 5618 5620 5622 5624 5625 5627 5630 5636 5636 5638 5641 5644 5648 5653 5657 5662 5666 5670 5674 5678 5682 5685 5688 5692 5695 5699 5701 5704 5707 5709 5711 5713 5714 5716 5717 5718 5720 5720
5610 5610 5611 5611 5611 5612 5614 5616 5617 5619 5621 5623 5626 5629 5632 5633 5636 5639 5642 5646 5650 5655 5659 5663 5667 5670 5674 5677 5680 5683 5686 5689 5692 5694 5696 5699 5700 5702 5703 5705 5706 5707 5708 5709
5607 5606 5606 5606 5607 5608 5609 5611 5612 5614 5616 5618 5621 5623 5626 5628 5630 5633 5636 5640 5644 5648 5652 5656 5659 5662 5666 5669 5672 5674 5677 5680 5682 5685 5687 5689 5690 5692 5693 5694 5695 5696 5696 5697
5603 5602 5602 5602 5603 5603 5604 5606 5607 5609 5611 5613 5615 5618 5621 5622 5624 5627 5630 5634 5637 5641 5645 5648 5652 5655 5658 5661 5664 5666 5669 5671 5673 5675 5677 5679 5680 5681 5682 5683 5684 5684 5685 5686
5599 5598 5598 5598 5599 5599 5601 5602 5603 5604 5606 5608 5610 5614 5615 5617 5619 5622 5625 5628 5631 5635 5638 5641 5645 5648 5651 5653 5656 5658 5661 5663 5665 5666 5668 5669 5670 5671 5672 5673 5673 5674 5674 5675
5596 5594 5594 5594 5596 5596 5599 5598 5599 5600 5602 5603 5605 5607 5609 5612 5614 5617 5619 5622 5625 5629 5632 5635 5638 5641 5643 5646 5648 5650 5652 5654 5656 5657 5659 5660 5661 5662 5662 5663 5663 5663 5664 5664
5592 5591 5591 5591 5592 5592 5594 5594 5595 5596 5598 5599 5600 5602 5604 5606 5609 5611 5614 5616 5619 5622 5625 5628 5631 5633 5636 5638 5640 5642 5644 5646 5647 5648 5650 5651 5651 5652 5652 5653 5653 5653 5653 5653
5589 5588 5588 5588 5588 5589 5591 5591 5591 5593 5593 5594 5595 5597 5599 5601 5604 5607 5608 5610 5613 5615 5618 5620 5623 5626 5628 5630 5632 5634 5635 5637 5638 5639 5641 5641 5642 5642 5643 5643 5643 5643 5643 5643
5587 5586 5586 5585 5585 5586 5587 5586 5588 5590 5590 5590 5591 5592 5594 5596 5598 5601 5602 5604 5606 5608 5611 5613 5615 5618 5620 5622 5624 5625 5627 5628 5630 5631 5631 5632 5632 5633 5633 5633 5633 5633 5633 5633
5584 5583 5583 5583 5583 5585 5583 5583 5584 5584 5584 5585 5585 5587 5589 5590 5592 5594 5596 5598 5600 5601 5604 5606 5608 5610 5612 5613 5615 5617 5618 5620 5621 5622 5622 5623 5623 5623 5623 5624 5624 5623 5623 5623
5582 5581 5579 5580 5581 5579 5578 5578 5579 5579 5579 5580 5581 5582 5583 5585 5586 5588 5589 5591 5593 5595 5596 5598 5600 5602 5604 5605 5607 5608 5610 5611 5612 5613 5613 5614 5614 5614 5614 5614 5614 5614 5614 5614
5579 5577 5576 5575 5575 5574 5574 5573 5574 5574 5574 5575 5576 5577 5578 5579 5580 5582 5583 5584 5586 5587 5589 5591 5592 5594 5596 5597 5599 5600 5601 5602 5603 5604 5604 5605 5605 5605 5605 5605 5605 5605 5605 5604
5576 5573 5572 5571 5570 5570 5570 5569 5569 5569 5569 5569 5570 5571 5572 5573 5574 5575 5576 5578 5579 5580 5582 5583 5585 5586 5588 5589 5590 5592 5593 5593 5594 5595 5595 5596 5596 5596 5596 5596 5596 5596 5596 5595
5572 5569 5567 5566 5565 5565 5564 5563 5563 5563 5563 5563 5564 5565 5566 5567 5568 5569 5570 5571 5572 5573 5575 5576 5577 5578 5580 5581 5582 5583 5584 5585 5586 5586 5587 5587 5587 5587 5588 5587 5587 5587 5587 5586
Wind_Speed
16 21 23 27 32 34 38 40 43 45 47 48 50 51 51 51 53 54 54 55 56 55 55 55 55 54 53 52 50 49 47 46 44 43 41 40 39 39 38 38 38 38 37 37
14 19 21 24 29 31 34 37 39 40 43 46 48 50 51 51 52 53 52 53 54 55 55 56 55 55 54 53 52 51 50 48 47 45 44 43 42 42 41 41 40 40 39 39
12 16 18 22 26 28 31 34 36 38 40 43 45 48 50 50 51 52 52 52 53 53 54 55 54 54 54 54 53 52 51 50 49 48 47 46 45 44 43 42 42 42 42 42
9 13 16 20 24 26 28 31 32 35 37 39 42 44 48 49 50 50 50 51 51 52 52 54 54 54 53 53 53 53 52 52 51 49 48 47 46 45 44 44 44 43 43 44
7 11 14 18 22 24 25 28 30 32 35 37 39 42 43 46 48 48 49 50 50 51 51 52 53 53 53 53 53 53 52 52 51 51 49 49 49 48 47 46 46 45 45 45
5 9 12 16 20 23 23 27 29 31 33 35 36 39 41 43 44 45 46 47 49 50 50 50 50 51 52 53 53 53 53 53 52 52 52 51 51 50 50 49 49 48 47 47
4 8 12 15 17 21 22 24 27 30 32 33 33 37 38 40 42 43 43 44 45 47 48 49 49 49 50 51 52 53 54 53 53 52 52 52 51 52 51 50 50 50 50 50
4 8 11 14 16 18 21 22 24 25 28 29 31 34 35 39 40 40 41 41 43 44 45 46 46 47 49 49 51 52 53 54 54 53 52 52 52 53 53 53 52 52 53 52
5 8 12 15 16 19 21 21 20 21 24 26 28 29 32 35 37 39 39 39 40 41 42 43 44 44 46 47 48 49 52 53 54 53 53 52 52 53 53 53 53 53 53 52
7 8 11 15 17 18 19 20 20 20 22 24 24 26 28 30 32 36 38 38 37 38 39 40 41 42 43 44 46 47 48 51 52 53 53 53 53 53 54 54 54 53 53 53
8 8 10 14 16 17 18 20 21 20 20 21 22 23 24 27 28 31 35 36 35 35 37 37 38 39 39 41 42 43 45 47 48 50 51 52 53 53 52 53 53 53 53 52
10 10 12 13 15 17 19 20 22 22 20 20 21 21 22 23 25 28 31 33 34 34 34 34 35 36 37 38 39 41 42 44 46 47 49 49 49 51 51 51 51 51 51 51
11 12 13 14 15 17 19 20 22 23 22 22 22 21 21 22 24 26 29 31 33 34 33 32 32 34 35 36 37 39 41 42 43 44 46 47 47 48 48 49 49 49 50 50
13 13 13 14 15 16 19 20 22 24 24 24 23 23 22 23 24 26 28 30 31 32 32 32 32 32 33 34 35 36 38 40 41 43 43 44 45 46 46 46 47 48 48 49
14 14 15 15 16 18 20 21 23 24 24 25 24 24 24 24 25 26 27 29 30 30 31 31 32 32 32 32 33 34 35 36 37 39 40 41 42 43 44 46 46 46 47 47
14 15 15 15 16 18 20 20 21 24 24 24 24 24 24 25 25 25 26 27 28 29 30 30 30 30 30 31 31 32 33 34 35 36 37 39 40 40 41 42 42 43 44 44
14 14 15 14 15 17 18 18 20 22 23 24 24 23 24 24 24 24 25 25 26 27 29 29 29 29 29 30 30 31 32 33 33 34 35 36 38 39 39 39 40 41 42 42
14 13 14 14 14 15 15 16 17 19 20 22 23 22 23 23 23 24 25 25 25 26 27 28 28 28 29 29 30 30 31 31 32 33 34 34 35 36 37 38 38 39 39 40
14 14 13 13 14 14 14 15 16 17 17 20 21 22 23 23 23 24 25 26 27 27 27 28 28 28 29 29 29 29 30 30 31 32 33 34 35 35 36 37 37 38 38 39
14 12 12 12 13 13 14 15 16 17 18 19 20 21 22 23 23 23 24 25 26 27 28 28 28 29 29 29 29 30 30 31 32 32 33 34 34 35 36 36 37 37 37 37
15 13 13 12 13 13 14 15 16 17 17 18 19 20 21 22 23 23 24 24 25 26 27 28 28 29 29 29 30 30 30 31 31 32 32 33 33 34 35 35 35 36 36 36
16 13 12 14 14 15 16 17 17 18 18 18 18 19 20 21 22 23 24 24 25 25 26 27 28 29 29 30 30 30 30 31 31 31 32 32 33 33 34 34 34 34 35 35
17 14 14 14 15 16 17 18 18 19 19 19 19 20 20 21 22 23 23 24 24 25 26 27 28 28 29 29 29 30 30 31 31 31 31 32 32 32 32 33 33 33 33 33
17 16 15 15 16 17 17 18 19 19 20 20 20 21 21 21 22 23 24 24 24 25 25 26 27 27 28 28 29 30 30 31 31 31 31 32 32 32 32 32 31 32 32 32
18 17 16 17 18 18 18 19 19 19 20 21 21 22 22 22 23 23 24 24 24 25 25 26 26 27 27 28 28 29 30 30 31 31 31 31 31 31 31 31 31 31 31 31
20 19 18 18 19 20 21 21 21 21 22 22 22 22 23 22 22 22 22 23 24 24 25 25 26 26 27 27 28 29 29 29 30 30 30 30 30 30 30 30 30 30 30 30
Wind_Direction
192 198 201 203 205 207 210 213 215 217 218 219 218 219 220 221 220 221 222 223 223 224 225 226 227 229 230 231 233 236 237 239 241 243 246 248 251 253 254 255 256 257 259 261
195 198 202 205 206 207 209 213 215 217 218 220 221 221 222 223 223 222 223 224 225 225 226 228 229 230 231 232 233 235 237 240 242 244 246 248 250 252 254 256 256 258 260 263
198 201 203 204 204 206 209 212 216 217 220 222 225 225 223 224 224 224 224 225 226 227 228 229 230 231 232 233 235 236 238 240 242 244 246 248 250 253 255 256 258 259 260 263
196 199 205 205 205 205 209 211 214 218 221 224 225 227 225 225 226 225 225 226 228 229 230 231 231 232 234 235 236 238 240 241 242 244 246 248 250 252 254 257 258 259 261 263
200 202 207 206 203 203 208 210 213 218 222 226 226 229 226 227 228 227 227 228 229 231 232 233 234 234 235 236 237 239 240 242 243 244 246 247 249 252 253 256 257 260 262 264
218 208 206 203 203 203 207 211 214 218 222 227 228 231 228 228 229 229 229 231 231 232 233 234 235 235 236 237 238 239 241 242 244 245 246 248 250 252 254 256 258 261 263 264
236 210 205 203 203 206 209 212 216 221 226 230 229 232 231 230 230 229 230 231 232 233 234 235 237 238 237 238 239 240 241 242 244 246 248 249 251 253 255 257 259 261 264 265
250 218 214 213 211 213 213 214 217 224 230 231 230 234 232 231 231 230 231 232 234 235 235 237 239 240 240 240 240 241 241 242 244 246 248 250 252 254 255 257 260 262 264 265
263 239 228 222 220 221 219 217 219 226 230 235 236 236 234 233 232 231 232 232 233 236 236 237 239 241 241 241 242 243 243 244 245 247 248 250 253 255 256 258 260 262 264 264
279 257 235 227 227 226 226 223 224 228 230 236 239 240 239 236 234 232 232 233 234 236 238 239 240 241 242 242 242 243 244 245 247 248 250 251 253 254 256 259 261 262 264 266
288 267 247 231 227 228 228 229 230 232 233 235 239 242 241 239 235 234 233 233 234 236 238 239 239 241 242 243 243 243 244 245 247 248 251 253 254 256 257 258 260 263 265 266
284 277 262 239 233 233 234 233 233 234 235 235 238 239 238 242 239 236 234 233 234 236 238 240 241 241 242 243 243 243 244 245 247 249 251 253 255 257 258 259 262 263 265 266
285 277 271 257 249 242 238 236 238 237 237 238 241 239 240 244 241 238 235 234 234 236 237 240 240 240 241 243 244 244 245 245 247 249 251 253 255 257 259 261 262 264 267 268
286 279 271 263 256 248 244 241 240 240 241 243 242 243 246 246 243 239 237 236 235 236 237 239 241 242 242 244 245 246 247 247 249 250 252 254 256 258 260 262 263 265 267 269
287 280 272 263 256 251 248 246 243 242 244 244 244 246 247 246 244 240 238 235 235 236 237 238 240 242 243 244 246 247 248 249 250 251 254 256 257 260 261 263 264 266 267 268
293 283 277 266 259 253 251 249 246 245 246 247 246 247 246 246 242 239 237 236 235 236 237 238 239 241 242 244 246 247 249 250 252 253 255 257 258 260 262 264 265 266 267 268
297 285 279 271 263 263 258 252 250 249 248 248 247 243 243 243 241 239 238 236 236 236 237 238 239 241 243 245 247 248 250 252 254 256 257 258 260 261 263 265 266 267 268 268
303 289 280 277 269 266 263 257 252 251 251 249 246 245 245 242 240 239 238 236 237 237 238 239 241 242 244 246 248 249 251 253 255 257 259 260 261 263 264 266 267 268 269 270
307 290 282 277 272 275 268 263 258 257 256 253 249 245 245 241 240 240 239 239 240 241 241 241 242 244 246 247 249 250 252 254 256 258 260 261 263 265 267 268 268 270 271 271
314 294 282 276 270 276 271 264 261 259 257 254 252 249 246 244 242 242 242 243 244 244 244 244 245 246 247 249 250 252 254 256 257 259 261 263 265 266 267 269 269 270 271 272
316 296 279 273 270 271 269 267 263 261 258 257 253 251 249 246 247 246 246 246 246 246 246 246 246 247 248 250 252 254 255 257 259 261 263 265 267 268 268 269 270 271 271 272
320 303 282 275 275 272 268 267 264 261 260 259 253 250 250 249 249 249 248 248 248 248 247 247 247 248 250 252 253 254 256 257 260 262 265 266 268 269 269 269 271 272 272 272
316 301 286 277 275 272 269 267 264 261 259 258 255 252 253 252 250 249 249 250 249 250 250 250 250 251 251 252 254 255 256 258 260 263 265 267 268 269 270 270 271 272 272 272
316 302 289 281 273 270 269 268 267 263 258 256 257 255 255 254 252 251 251 250 250 251 252 252 252 252 252 254 255 256 258 259 261 263 265 266 268 268 269 269 270 271 272 273
317 304 291 283 275 268 268 269 267 265 261 257 257 256 255 255 254 252 252 251 251 252 252 253 253 253 254 255 256 258 260 261 262 263 265 266 267 268 269 270 272 273 273 274
318 309 299 289 281 275 271 268 268 266 263 260 257 255 255 254 254 254 254 252 251 253 253 254 254 254 254 256 257 258 259 261 262 264 265 266 267 268 270 271 272 273 273 273